Regional Weather Roundup
Issued by NWS Jackson, KY

Home | Current Version | Previous Version | Text Only | Print | Product List | Glossary On
Versions: 1 2 3 4 5 6 7 8 9 10 11 12 13 14 15 16 17 18 19 20 21 22 23 24 25 26 27 28 29 30 31 32 33 34 35 36 37 38 39 40 41 42 43 44 45 46 47 48 49 50
000
ASUS43 KJKL 021910
RWRJKL

EAST KENTUCKY HOURLY WEATHER ROUNDUP
NATIONAL WEATHER SERVICE JACKSON KY
300 PM EDT TUE JUN 02 2015

NOTE: "FAIR" INDICATES FEW OR NO CLOUDS BELOW 12,000 FEET WITH
NO SIGNIFICANT WEATHER AND/OR OBSTRUCTIONS TO VISIBILITY.

* THESE REPORTS ARE NOT UNDER NWS QUALITY CONTROL AND MAY NOT
  REPORT WEATHER SUCH AS PRECIPITATION AND FOG.

KYZ079-080-083-085-087-088-110-112-115-119-120-022000
...EASTERN KENTUCKY...

CITY           SKY/WX    TMP DP  RH WIND       PRES   REMARKS
JACKSON        CLOUDY    59  55  87 CALM      30.09F
LONDON         CLOUDY    66  54  65 NE9       30.07F
SOMERSET*      CLOUDY    64  55  72 NE8       30.08F
MONTICELLO*    CLOUDY    68  60  75 N8        30.09F
MIDDLESBORO*   CLOUDY    70  62  73 N8        30.05F
HARLAN APT*    CLOUDY    64  57  77 CALM      30.07S
HAZARD APT*    CLOUDY    63  59  88 NE3       30.09F
BLACK MTN*       N/A     54  54 100 N6          N/A
PIKEVILLE APT* CLOUDY    61  57  88 NW6       30.09F
BIG SANDY*     CLOUDY    62  58  85 CALM      30.09F
MOREHEAD APT*  CLOUDY    59  54  82 N7        30.13F
$$

KYZ035-036-041-042-044-050-067-078-099-022000
...CENTRAL KENTUCKY...

CITY           SKY/WX    TMP DP  RH WIND       PRES   REMARKS
MT STERLING*   CLOUDY    59  54  82 NE6       30.12F
FLEMING/MASON* CLOUDY    57  52  82 NE7       30.12F
DANVILLE*      CLOUDY    61  55  82 NE6       30.10F
RICHMOND*      CLOUDY    61  54  77 NE6       30.09F
LEXINGTON      CLOUDY    58  53  84 E7        30.11F
FRANKFORT      CLOUDY    61  53  75 E7        30.10F
$$

KYZ091>093-OHZ055-061-077-WVZ005-015-034-035-042-022000
...SOUTHERN OHIO/WEST VIRGINIA...

CITY           SKY/WX    TMP DP  RH WIND       PRES   REMARKS
COVINGTON      CLOUDY    60  51  72 N6        30.13F
COLUMBUS       CLOUDY    63  52  67 NE9       30.13F
DAYTON         CLOUDY    62  52  69 NE7       30.15F
WILMINGTON     CLOUDY    58  50  75 NE10      30.13F
HUNTINGTON     CLOUDY    58  54  86 NE6       30.10F
CHARLESTON     CLOUDY    59  55  87 VRB5      30.09F
PINEVILLE*     CLOUDY    67  60  78 MISG      30.11F
BECKLEY        CLOUDY    61  57  87 N6        30.09F
BLUEFIELD      PTSUNNY   72  58  61 NW7       30.09F
$$

VAZ002-007-008-TNZ017-027-036-066-071-022000
...SOUTHWEST VIRGINIA/EAST TENNESSEE...

CITY           SKY/WX    TMP DP  RH WIND       PRES   REMARKS
WISE*          CLOUDY    61  61 100 N5        30.10S
JONESVILLE*    LGT RAIN  68  63  83 NW3       30.06R
ABINGDON*      CLOUDY    67  64  88 CALM      30.04F
BRISTOL        TSTM      71  65  81 S3        30.03R
KNOXVILLE      PTSUNNY   79  59  50 W8        29.98F
OAK RIDGE      CLOUDY    76  61  59 NW3       30.02F
CROSSVILLE     CLOUDY    69  59  70 N9        30.06F
NASHVILLE      CLOUDY    67  59  75 N5        30.08F
$$

...KEY TO REMARKS...
VSB - VISIBILITY IN MILES
WCI - WIND CHILL INDEX
HX  - HEAT INDEX

$$



USA.gov is the U.S. government's official web portal to all federal, state and local government web resources and services.